Torna al catalogo

METEOSAT 5 AKM

AttivoMEO
NORAD 21904·ROCKET BODY·🇪🇺 EU

Lanciato Mar 2, 1991 da Guiana Space Centre

Loading…

Prossimi Passaggi (prossime 24 ore)

TLE

AggiornatoSource: Space-Track

Epoca: Sep 14, 2026, 08:45 UTC

1 21904U 91015E   26257.36467067  .00000024  00000-0  00000-0 0  9999
2 21904  12.1852 337.7896 0159519 239.0933 119.3498  1.00137740117264

Traccia METEOSAT 5 AKM in tempo reale con AllMySat

Download on the App Store